Weather History for The Dalles, OR

Change the Weather History Date:

Wednesday, September 3, 2014

  Actual Average Record
Temperature  
Mean Temperature 68 °F -  
Max Temperature 75 °F 86 °F 105 °F (1988)
Min Temperature 60 °F 54 °F 42 °F (1980)
Cooling Degree Days 2    
Growing Degree Days 18 (Base 50)    
Moisture  
Dew Point 44 °F    
Average Humidity 44    
Maximum Humidity 58    
Minimum Humidity 33    
Precipitation  
Precipitation 0.00 in - - ()
Sea Level Pressure  
Sea Level Pressure 29.98 in    
Wind  
Wind Speed 12 mph (WNW)    
Max Wind Speed 23 mph    
Max Gust Speed 31 mph    
Visibility 10 miles    
Events      
Averages and records for this station are not official NWS values.
T = Trace of Precipitation, MM = Missing Value Source: NWS Daily Summary

Daily Weather History Graph

Daily Weather History Graph

Search for Another Location

Airport:

Trip Planner

Search our weather history database for the weather conditions in past years. The results will help you decide how hot, cold, wet, or windy it might be!

Date:

Astronomy

Sep. 03, 2014 Rise Set
Actual Time 6:28 AM PDT 7:38 PM PDT
Civil Twilight 5:57 AM PDT 8:08 PM PDT
Nautical Twilight 5:21 AM PDT 8:45 PM PDT
Astronomical Twilight 4:42 AM PDT 9:24 PM PDT
Moon 3:35 PM PDT (9/3) 12:17 AM PDT (9/3)
Length of Visible Light 14h 11m
Length of Day
13h 10m
Waxing Gibbous, 65% of the Moon is Illuminated
Sep 3
Waxing Gibbous
Sep 8
Full
Sep 15
Last Quarter
Sep 23
New
Oct 1
First Quarter

Hourly Weather History & Observations

Time (PDT) Temp. Dew Point Humidity Pressure Visibility Wind Dir Wind Speed Gust Speed Precip Events Conditions
12:53 AM 62.1 °F 42.1 °F 48% 29.89 in 10.0 mi NW 8.1 mph - N/A   Mostly Cloudy
1:53 AM 62.1 °F 44.1 °F 52% 29.90 in 10.0 mi WNW 3.5 mph - N/A   Overcast
2:53 AM 61.0 °F 45.0 °F 56% 29.91 in 10.0 mi WNW 4.6 mph - N/A   Overcast
3:53 AM 61.0 °F 43.0 °F 52% 29.94 in 10.0 mi WNW 4.6 mph - N/A   Overcast
4:53 AM 61.0 °F 44.1 °F 54% 29.95 in 10.0 mi WNW 18.4 mph 26.5 mph N/A   Overcast
5:53 AM 60.1 °F 42.1 °F 51% 29.97 in 10.0 mi West 23.0 mph - N/A   Mostly Cloudy
6:53 AM 60.1 °F 39.9 °F 47% 29.99 in 10.0 mi West 18.4 mph - N/A   Mostly Cloudy
7:53 AM 61.0 °F 39.0 °F 44% 30.01 in 10.0 mi WNW 5.8 mph 19.6 mph N/A   Clear
8:53 AM 64.0 °F 39.9 °F 41% 30.01 in 10.0 mi West 15.0 mph 20.7 mph N/A   Clear
9:53 AM 66.0 °F 42.1 °F 42% 30.03 in 10.0 mi WNW 13.8 mph - N/A   Clear
10:53 AM 66.9 °F 42.1 °F 40% 30.04 in 10.0 mi WNW 20.7 mph 27.6 mph N/A   Partly Cloudy
11:53 AM 70.0 °F 42.1 °F 36% 30.03 in 10.0 mi WNW 23.0 mph 29.9 mph N/A   Clear
12:53 PM 71.1 °F 43.0 °F 36% 30.01 in 10.0 mi WNW 20.7 mph 29.9 mph N/A   Clear
1:53 PM 72.0 °F 43.0 °F 35% 30.01 in 10.0 mi West 23.0 mph 31.1 mph N/A   Clear
2:53 PM 73.9 °F 44.1 °F 34% 29.99 in 10.0 mi WNW 18.4 mph - N/A   Clear
3:53 PM 75.0 °F 44.1 °F 33% 29.98 in 10.0 mi West 20.7 mph 25.3 mph N/A   Clear
4:53 PM 73.9 °F 44.1 °F 34% 29.97 in 10.0 mi West 18.4 mph 26.5 mph N/A   Clear
5:53 PM 73.9 °F 44.1 °F 34% 29.97 in 10.0 mi West 17.3 mph 23.0 mph N/A   Clear
6:53 PM 72.0 °F 45.0 °F 38% 29.97 in 10.0 mi West 11.5 mph - N/A   Clear
7:53 PM 69.1 °F 45.0 °F 42% 29.99 in 10.0 mi WNW 8.1 mph - N/A   Clear
8:53 PM 66.0 °F 46.0 °F 48% 30.00 in 10.0 mi NW 8.1 mph - N/A   Clear
9:53 PM 66.0 °F 46.9 °F 50% 30.01 in 10.0 mi NW 12.7 mph - N/A   Clear
10:53 PM 64.9 °F 46.9 °F 52% 30.02 in 10.0 mi NW 11.5 mph - N/A   Clear
11:53 PM 63.0 °F 48.0 °F 58% 30.04 in 10.0 mi NW 10.4 mph - N/A   Clear